CZ-2C R/B

Satellite information

Favourite Embed

Satellite Type and Status

ROCKET BODYIN ORBIT

Key statistics

Satellite CZ-2C R/B at a glance.

Uptime

2555

Days in orbit

Revolutions

≈ 14.6

Per day

Orbit

SSO

Sun Synchronous Orbit

Inclination

98.7

Latest

Satellite identification and parameters

Extended collection of information and parameters for CZ-2C R/B.

Object identification

Identified? True

Debris? False

Object name: CZ-2C R/B

International designator: 2018-068B

Object number (NORAD): 43610

Object ID (CCSDS): 43610

Country: PEOPLES REPUBLIC OF CHINA (PRC)

Current information (Y/N): Y

RCS size: LARGE

Orbital parameters

Period: 98.88 minutes

Inclination: 98.7329 deg

SMA: 7083.27 km

Apoapsis: 767.177 km

Periapsis: 643.093 km

RAAN: 74.3217 deg

Eccentricy: 0.0087589

Argument of periapsis: 142.7822 deg

Mean anomaly: 217.9489 deg

Mean motion: 14.56304048 rev/day

Mean motion (dot): 0.00000851 rev/day2

B* drag term: 0.00019418734 1/REarth

Two-line elements (TLE)

Creation date: Sept. 4, 2025, 10:13 a.m.

Reference frame: TEME

Reference center: EARTH

Epoch: Sept. 4, 2025, 6:06 a.m. UTC

TLE line 0: 0 CZ-2C R/B

TLE line 1: 1 43610U 18068B 25247.25482640 .00000851 00000-0 19419-3 0 9999

TLE line 2: 2 43610 98.7329 74.3217 0087589 142.7822 217.9489 14.56304048371276

Live tracking on map

Real-time ground track for satellite CZ-2C R/B.

In-orbit conjunctions

A list of the most updated potential collisions computed for object CZ-2C R/B.

Target Orbit TCA Probability of collision Miss distance Type
CZ-6A DEB SSO 2025-05-11 00:28:49 0.0001783065 235.0 (m) DEBRIS
COSMOS 2251 DEB LEO 2025-05-06 13:42:17 0.0001580168 729.0 (m) DEBRIS
CZ-6A DEB LEO 2024-12-19 01:42:43 0.0003918152 966.0 (m) DEBRIS
CZ-6A DEB LEO 2024-12-10 09:37:37 0.0003120343 88.0 (m) DEBRIS
CZ-6A DEB LEO 2024-10-14 21:19:20 0.0001144775 176.0 (m) DEBRIS

Associated space launch

Haiyang is a series of Chinese marine remote sensing satellites. Haiyang 1C is the follow-up of the Haiyang 1A and 1B satellites. It is intended for ocean monitoring and will be providing data on the temperature and dynamics of coastal waters and global oceans in China.

CZ-2C R/B was lifted into orbit during the mission ‘Long March 2C | Haiyang 1C’, on board a Long March 2 space rocket.

The launch took place on Sept. 7, 2018, 3:15 a.m. from Launch Complex 9.

For more information about the launch, click the button.

Launch to space Long March 2C | Haiyang 1C
Long March 2C | Haiyang 1C

Agency: N/A

Status: Launch Successful

Launch date: Sept. 7, 2018, 3:15 a.m. UTC

Rocket: Long March 2

Launch pad: Launch Complex 9

Location: Taiyuan Satellite Launch Center, People's Republic of China

...

Latest news about this satellite

There are no fresh news available about this satellite. Check back as we update our databases every day.


Newsletter sign-up

Weekly statistics, charts and insights to help you stay on top of the space industry.